Year,Month,Day,Hour,Minute,Value (Times are PST for temperature in C)
2014,08,27,00,00,20.90
2014,08,27,00,01,20.90
2014,08,27,00,02,20.90
2014,08,27,00,03,20.90
2014,08,27,00,04,20.90
2014,08,27,00,05,20.90
2014,08,27,00,06,20.90
2014,08,27,00,07,20.90
2014,08,27,00,08,20.90
2014,08,27,00,09,20.90
2014,08,27,00,10,20.90
2014,08,27,00,11,20.90
2014,08,27,00,12,20.90
2014,08,27,00,13,20.90
2014,08,27,00,14,21.00
2014,08,27,00,15,21.00
2014,08,27,00,16,21.00
2014,08,27,00,17,21.10
2014,08,27,00,18,21.10
2014,08,27,00,19,21.10
2014,08,27,00,20,21.10
2014,08,27,00,21,21.10
2014,08,27,00,22,21.10
2014,08,27,00,23,21.10
2014,08,27,00,24,21.10
2014,08,27,00,25,21.20
2014,08,27,00,26,21.20
2014,08,27,00,27,21.20
2014,08,27,00,28,21.30
2014,08,27,00,29,21.30
2014,08,27,00,30,21.30
2014,08,27,00,31,21.40
2014,08,27,00,32,21.40
2014,08,27,00,33,21.40
2014,08,27,00,34,21.40
2014,08,27,00,35,21.40
2014,08,27,00,36,21.50
2014,08,27,00,37,21.50
2014,08,27,00,38,21.60
2014,08,27,00,39,21.60
2014,08,27,00,40,21.60
2014,08,27,00,41,21.60
2014,08,27,00,42,21.60
2014,08,27,00,43,21.60
2014,08,27,00,44,21.70
2014,08,27,00,45,21.70
2014,08,27,00,46,21.70
2014,08,27,00,47,21.70
2014,08,27,00,48,21.70
2014,08,27,00,49,21.70
2014,08,27,00,50,21.70
2014,08,27,00,51,21.70
2014,08,27,00,52,21.80
2014,08,27,00,53,21.80
2014,08,27,00,54,21.80
2014,08,27,00,55,21.80
2014,08,27,00,56,21.80
2014,08,27,00,57,21.80
2014,08,27,00,58,21.80
2014,08,27,00,59,21.80
2014,08,27,01,00,21.80
2014,08,27,01,01,21.80
2014,08,27,01,02,21.80
2014,08,27,01,03,21.80
2014,08,27,01,04,21.80
2014,08,27,01,05,21.80
2014,08,27,01,06,21.80
2014,08,27,01,07,21.80
2014,08,27,01,08,21.70
2014,08,27,01,09,21.70
2014,08,27,01,10,21.70
2014,08,27,01,11,21.70
2014,08,27,01,12,21.70
2014,08,27,01,13,21.70
2014,08,27,01,14,21.70
2014,08,27,01,15,21.70
2014,08,27,01,16,21.70
2014,08,27,01,17,21.70
2014,08,27,01,18,21.80
2014,08,27,01,19,21.80
2014,08,27,01,20,21.80
2014,08,27,01,21,21.80
2014,08,27,01,22,21.80
2014,08,27,01,23,21.80
2014,08,27,01,24,21.70
2014,08,27,01,25,21.70
2014,08,27,01,26,21.60
2014,08,27,01,27,21.50
2014,08,27,01,28,21.50
2014,08,27,01,29,21.40
2014,08,27,01,30,21.30
2014,08,27,01,31,21.20
2014,08,27,01,32,21.10
2014,08,27,01,33,21.00
2014,08,27,01,34,20.90
2014,08,27,01,35,20.80
2014,08,27,01,36,20.70
2014,08,27,01,37,20.60
2014,08,27,01,38,20.50
2014,08,27,01,39,20.40
2014,08,27,01,40,20.30
2014,08,27,01,41,20.30
2014,08,27,01,42,20.20
2014,08,27,01,43,20.10
2014,08,27,01,44,20.10
2014,08,27,01,45,20.00
2014,08,27,01,46,20.00
2014,08,27,01,47,19.90
2014,08,27,01,48,19.90
2014,08,27,01,49,19.80
2014,08,27,01,50,19.80
2014,08,27,01,51,19.80
2014,08,27,01,52,19.70
2014,08,27,01,53,19.70
2014,08,27,01,54,19.60
2014,08,27,01,55,19.60
2014,08,27,01,56,19.60
2014,08,27,01,57,19.50
2014,08,27,01,58,19.50
2014,08,27,01,59,19.40
2014,08,27,02,00,19.40
2014,08,27,02,01,19.40
2014,08,27,02,02,19.30
2014,08,27,02,03,19.30
2014,08,27,02,04,19.30
2014,08,27,02,05,19.20
2014,08,27,02,06,19.20
2014,08,27,02,07,19.20
2014,08,27,02,08,19.20
2014,08,27,02,09,19.10
2014,08,27,02,10,19.10
2014,08,27,02,11,19.10
2014,08,27,02,12,19.10
2014,08,27,02,13,19.00
2014,08,27,02,14,19.00
2014,08,27,02,15,19.00
2014,08,27,02,16,18.90
2014,08,27,02,17,18.90
2014,08,27,02,18,18.90
2014,08,27,02,19,18.90
2014,08,27,02,20,18.90
2014,08,27,02,21,18.90
2014,08,27,02,22,18.80
2014,08,27,02,23,18.80
2014,08,27,02,24,18.80
2014,08,27,02,25,18.80
2014,08,27,02,26,18.80
2014,08,27,02,27,18.80
2014,08,27,02,28,18.70
2014,08,27,02,29,18.70
2014,08,27,02,30,18.70
2014,08,27,02,31,18.70
2014,08,27,02,32,18.70
2014,08,27,02,33,18.70
2014,08,27,02,34,18.70
2014,08,27,02,35,18.70
2014,08,27,02,36,18.60
2014,08,27,02,37,18.60
2014,08,27,02,38,18.60
2014,08,27,02,39,18.60
2014,08,27,02,40,18.60
2014,08,27,02,41,18.60
2014,08,27,02,42,18.60
2014,08,27,02,43,18.50
2014,08,27,02,44,18.50
2014,08,27,02,45,18.50
2014,08,27,02,46,18.50
2014,08,27,02,47,18.40
2014,08,27,02,48,18.40
2014,08,27,02,49,18.40
2014,08,27,02,50,18.40
2014,08,27,02,51,18.40
2014,08,27,02,52,18.40
2014,08,27,02,53,18.40
2014,08,27,02,54,18.30
2014,08,27,02,55,18.30
2014,08,27,02,56,18.30
2014,08,27,02,57,18.30
2014,08,27,02,58,18.30
2014,08,27,02,59,18.30
2014,08,27,03,00,18.30
2014,08,27,03,01,18.30
2014,08,27,03,02,18.30
2014,08,27,03,03,18.30
2014,08,27,03,04,18.30
2014,08,27,03,05,18.30
2014,08,27,03,06,18.30
2014,08,27,03,07,18.20
2014,08,27,03,08,18.20
2014,08,27,03,09,18.20
2014,08,27,03,10,18.20
2014,08,27,03,11,18.20
2014,08,27,03,12,18.20
2014,08,27,03,13,18.20
2014,08,27,03,14,18.10
2014,08,27,03,15,18.10
2014,08,27,03,16,18.10
2014,08,27,03,17,18.10
2014,08,27,03,18,18.10
2014,08,27,03,19,18.10
2014,08,27,03,20,18.00
2014,08,27,03,21,18.00
2014,08,27,03,22,18.00
2014,08,27,03,23,18.00
2014,08,27,03,24,17.90
2014,08,27,03,25,17.90
2014,08,27,03,26,17.90
2014,08,27,03,27,17.90
2014,08,27,03,28,17.90
2014,08,27,03,29,17.90
2014,08,27,03,30,17.90
2014,08,27,03,31,17.90
2014,08,27,03,32,17.80
2014,08,27,03,33,17.80
2014,08,27,03,34,17.80
2014,08,27,03,35,17.80
2014,08,27,03,36,17.80
2014,08,27,03,37,17.80
2014,08,27,03,38,17.80
2014,08,27,03,39,17.80
2014,08,27,03,40,17.80
2014,08,27,03,41,17.80
2014,08,27,03,42,17.80
2014,08,27,03,43,17.80
2014,08,27,03,44,17.80
2014,08,27,03,45,17.80
2014,08,27,03,46,17.70
2014,08,27,03,47,17.70
2014,08,27,03,48,17.70
2014,08,27,03,49,17.70
2014,08,27,03,50,17.70
2014,08,27,03,51,17.70
2014,08,27,03,52,17.70
2014,08,27,03,53,17.70
2014,08,27,03,54,17.70
2014,08,27,03,55,17.70
2014,08,27,03,56,17.70
2014,08,27,03,57,17.70
2014,08,27,03,58,17.70
2014,08,27,03,59,17.60
2014,08,27,04,00,17.60
2014,08,27,04,01,17.60
2014,08,27,04,02,17.60
2014,08,27,04,03,17.60
2014,08,27,04,04,17.60
2014,08,27,04,05,17.60
2014,08,27,04,06,17.60
2014,08,27,04,07,17.60
2014,08,27,04,08,17.60
2014,08,27,04,09,17.60
2014,08,27,04,10,17.60
2014,08,27,04,11,17.60
2014,08,27,04,12,17.60
2014,08,27,04,13,17.60
2014,08,27,04,14,17.50
2014,08,27,04,15,17.50
2014,08,27,04,16,17.50
2014,08,27,04,17,17.50
2014,08,27,04,18,17.50
2014,08,27,04,19,17.40
2014,08,27,04,20,17.40
2014,08,27,04,21,17.40
2014,08,27,04,22,17.40
2014,08,27,04,23,17.40
2014,08,27,04,24,17.30
2014,08,27,04,25,17.30
2014,08,27,04,26,17.30
2014,08,27,04,27,17.30
2014,08,27,04,28,17.20
2014,08,27,04,29,17.20
2014,08,27,04,30,17.20
2014,08,27,04,31,17.10
2014,08,27,04,32,17.10
2014,08,27,04,33,17.00
2014,08,27,04,34,17.00
2014,08,27,04,35,16.90
2014,08,27,04,36,16.90
2014,08,27,04,37,16.90
2014,08,27,04,38,16.80
2014,08,27,04,39,16.80
2014,08,27,04,40,16.70
2014,08,27,04,41,16.70
2014,08,27,04,42,16.60
2014,08,27,04,43,16.60
2014,08,27,04,44,16.50
2014,08,27,04,45,16.40
2014,08,27,04,46,16.40
2014,08,27,04,47,16.30
2014,08,27,04,48,16.30
2014,08,27,04,49,16.30
2014,08,27,04,50,16.20
2014,08,27,04,51,16.20
2014,08,27,04,52,16.10
2014,08,27,04,53,16.10
2014,08,27,04,54,16.00
2014,08,27,04,55,16.00
2014,08,27,04,56,16.00
2014,08,27,04,57,15.90
2014,08,27,04,58,15.90
2014,08,27,04,59,15.90
2014,08,27,05,00,15.90
2014,08,27,05,01,15.90
2014,08,27,05,02,15.80
2014,08,27,05,03,15.80
2014,08,27,05,04,15.80
2014,08,27,05,05,15.80
2014,08,27,05,06,15.80
2014,08,27,05,07,15.80
2014,08,27,05,08,15.80
2014,08,27,05,09,15.70
2014,08,27,05,10,15.70
2014,08,27,05,11,15.70
2014,08,27,05,12,15.70
2014,08,27,05,13,15.70
2014,08,27,05,14,15.70
2014,08,27,05,15,15.70
2014,08,27,05,16,15.60
2014,08,27,05,17,15.60
2014,08,27,05,18,15.60
2014,08,27,05,19,15.60
2014,08,27,05,20,15.60
2014,08,27,05,21,15.60
2014,08,27,05,22,15.60
2014,08,27,05,23,15.60
2014,08,27,05,24,15.60
2014,08,27,05,25,15.60
2014,08,27,05,26,15.60
2014,08,27,05,27,15.60
2014,08,27,05,28,15.60
2014,08,27,05,29,15.60
2014,08,27,05,30,15.70
2014,08,27,05,31,15.70
2014,08,27,05,32,15.70
2014,08,27,05,33,15.70
2014,08,27,05,34,15.70
2014,08,27,05,35,15.70
2014,08,27,05,36,15.70
2014,08,27,05,37,15.70
2014,08,27,05,38,15.70
2014,08,27,05,39,15.70
2014,08,27,05,40,15.80
2014,08,27,05,41,15.80
2014,08,27,05,42,15.80
2014,08,27,05,43,15.80
2014,08,27,05,44,15.80
2014,08,27,05,45,15.80
2014,08,27,05,46,15.80
2014,08,27,05,47,15.80
2014,08,27,05,48,15.80
2014,08,27,05,49,15.80
2014,08,27,05,50,15.80
2014,08,27,05,51,15.80
2014,08,27,05,52,15.80
2014,08,27,05,53,15.80
2014,08,27,05,54,15.80
2014,08,27,05,55,15.80
2014,08,27,05,56,15.80
2014,08,27,05,57,15.80
2014,08,27,05,58,15.80
2014,08,27,05,59,15.80
2014,08,27,06,00,15.80
2014,08,27,06,01,15.80
2014,08,27,06,02,15.80
2014,08,27,06,03,15.80
2014,08,27,06,04,15.80
2014,08,27,06,05,15.80
2014,08,27,06,06,15.80
2014,08,27,06,07,15.80
2014,08,27,06,08,15.80
2014,08,27,06,09,15.80
2014,08,27,06,10,15.80
2014,08,27,06,11,15.80
2014,08,27,06,12,15.80
2014,08,27,06,13,15.70
2014,08,27,06,14,15.70
2014,08,27,06,15,15.70
2014,08,27,06,16,15.70
2014,08,27,06,17,15.70
2014,08,27,06,18,15.70
2014,08,27,06,19,15.70
2014,08,27,06,20,15.70
2014,08,27,06,21,15.70
2014,08,27,06,22,15.70
2014,08,27,06,23,15.70
2014,08,27,06,24,15.70
2014,08,27,06,25,15.70
2014,08,27,06,26,15.70
2014,08,27,06,27,15.70
2014,08,27,06,28,15.70
2014,08,27,06,29,15.70
2014,08,27,06,30,15.70
2014,08,27,06,31,15.70
2014,08,27,06,32,15.70
2014,08,27,06,33,15.70
2014,08,27,06,34,15.70
2014,08,27,06,35,15.70
2014,08,27,06,36,15.70
2014,08,27,06,37,15.70
2014,08,27,06,38,15.70
2014,08,27,06,39,15.70
2014,08,27,06,40,15.70
2014,08,27,06,41,15.70
2014,08,27,06,42,15.70
2014,08,27,06,43,15.60
2014,08,27,06,44,15.60
2014,08,27,06,45,15.60
2014,08,27,06,46,15.60
2014,08,27,06,47,15.60
2014,08,27,06,48,15.60
2014,08,27,06,49,15.60
2014,08,27,06,50,15.60
2014,08,27,06,51,15.60
2014,08,27,06,52,15.60
2014,08,27,06,53,15.60
2014,08,27,06,54,15.60
2014,08,27,06,55,15.60
2014,08,27,06,56,15.60
2014,08,27,06,57,15.60
2014,08,27,06,58,15.70
2014,08,27,06,59,15.70
2014,08,27,07,00,15.70
2014,08,27,07,01,15.70
2014,08,27,07,02,15.70
2014,08,27,07,03,15.70
2014,08,27,07,04,15.70
2014,08,27,07,05,15.80
2014,08,27,07,06,15.80
2014,08,27,07,07,15.80
2014,08,27,07,08,15.80
2014,08,27,07,09,15.80
2014,08,27,07,10,15.80
2014,08,27,07,11,15.80
2014,08,27,07,12,15.80
2014,08,27,07,13,15.80
2014,08,27,07,14,15.80
2014,08,27,07,15,15.80
2014,08,27,07,16,15.90
2014,08,27,07,17,15.90
2014,08,27,07,18,15.90
2014,08,27,07,19,15.90
2014,08,27,07,20,15.90
2014,08,27,07,21,16.00
2014,08,27,07,22,16.00
2014,08,27,07,23,16.10
2014,08,27,07,24,16.10
2014,08,27,07,25,16.10
2014,08,27,07,26,16.10
2014,08,27,07,27,16.20
2014,08,27,07,28,16.20
2014,08,27,07,29,16.20
2014,08,27,07,30,16.20
2014,08,27,07,31,16.30
2014,08,27,07,32,16.30
2014,08,27,07,33,16.30
2014,08,27,07,34,16.30
2014,08,27,07,35,16.40
2014,08,27,07,36,16.40
2014,08,27,07,37,16.50
2014,08,27,07,38,16.60
2014,08,27,07,39,16.60
2014,08,27,07,40,16.60
2014,08,27,07,41,16.70
2014,08,27,07,42,16.70
2014,08,27,07,43,16.80
2014,08,27,07,44,16.80
2014,08,27,07,45,16.80
2014,08,27,07,46,16.90
2014,08,27,07,47,16.90
2014,08,27,07,48,16.90
2014,08,27,07,49,17.00
2014,08,27,07,50,17.00
2014,08,27,07,51,17.10
2014,08,27,07,52,17.10
2014,08,27,07,53,17.10
2014,08,27,07,54,17.10
2014,08,27,07,55,17.10
2014,08,27,07,56,17.10
2014,08,27,07,57,17.10
2014,08,27,07,58,17.10
2014,08,27,07,59,17.10
2014,08,27,08,00,17.10
2014,08,27,08,01,17.10
2014,08,27,08,02,17.10
2014,08,27,08,03,17.20
2014,08,27,08,04,17.20
2014,08,27,08,05,17.20
2014,08,27,08,06,17.20
2014,08,27,08,07,17.20
2014,08,27,08,08,17.20
2014,08,27,08,09,17.20
2014,08,27,08,10,17.30
2014,08,27,08,11,17.30
2014,08,27,08,12,17.30
2014,08,27,08,13,17.40
2014,08,27,08,14,17.50
2014,08,27,08,15,17.50
2014,08,27,08,16,17.60
2014,08,27,08,17,17.70
2014,08,27,08,18,17.70
2014,08,27,08,19,17.80
2014,08,27,08,20,17.80
2014,08,27,08,21,17.90
2014,08,27,08,22,17.90
2014,08,27,08,23,18.00
2014,08,27,08,24,18.00
2014,08,27,08,25,18.10
2014,08,27,08,26,18.20
2014,08,27,08,27,18.20
2014,08,27,08,28,18.30
2014,08,27,08,29,18.30
2014,08,27,08,30,18.30
2014,08,27,08,31,18.30
2014,08,27,08,32,18.30
2014,08,27,08,33,18.30
2014,08,27,08,34,18.40
2014,08,27,08,35,18.40
2014,08,27,08,36,18.40
2014,08,27,08,37,18.40
2014,08,27,08,38,18.50
2014,08,27,08,39,18.50
2014,08,27,08,40,18.60
2014,08,27,08,41,18.60
2014,08,27,08,42,18.60
2014,08,27,08,43,18.70
2014,08,27,08,44,18.70
2014,08,27,08,45,18.70
2014,08,27,08,46,18.80
2014,08,27,08,47,18.80
2014,08,27,08,48,18.80
2014,08,27,08,49,18.90
2014,08,27,08,50,18.90
2014,08,27,08,51,19.00
2014,08,27,08,52,19.00
2014,08,27,08,53,19.10
2014,08,27,08,54,19.10
2014,08,27,08,55,19.20
2014,08,27,08,56,19.20
2014,08,27,08,57,19.20
2014,08,27,08,58,19.20
2014,08,27,08,59,19.20
2014,08,27,09,00,19.30
2014,08,27,09,01,19.30
2014,08,27,09,02,19.30
2014,08,27,09,03,19.20
2014,08,27,09,04,19.20
2014,08,27,09,05,19.20
2014,08,27,09,06,19.20
2014,08,27,09,07,19.20
2014,08,27,09,08,19.30
2014,08,27,09,09,19.30
2014,08,27,09,10,19.40
2014,08,27,09,11,19.50
2014,08,27,09,12,19.60
2014,08,27,09,13,19.60
2014,08,27,09,14,19.70
2014,08,27,09,15,19.80
2014,08,27,09,16,19.90
2014,08,27,09,17,20.00
2014,08,27,09,18,20.10
2014,08,27,09,19,20.20
2014,08,27,09,20,20.20
2014,08,27,09,21,20.30
2014,08,27,09,22,20.40
2014,08,27,09,23,20.50
2014,08,27,09,24,20.60
2014,08,27,09,25,20.60
2014,08,27,09,26,20.70
2014,08,27,09,27,20.70
2014,08,27,09,28,20.80
2014,08,27,09,29,20.80
2014,08,27,09,30,20.80
2014,08,27,09,31,20.80
2014,08,27,09,32,20.80
2014,08,27,09,33,20.80
2014,08,27,09,34,20.80
2014,08,27,09,35,20.80
2014,08,27,09,36,20.80
2014,08,27,09,37,20.80
2014,08,27,09,38,20.80
2014,08,27,09,39,20.80
2014,08,27,09,40,20.90
2014,08,27,09,41,20.90
2014,08,27,09,42,20.90
2014,08,27,09,43,20.90
2014,08,27,09,44,21.00
2014,08,27,09,45,21.00
2014,08,27,09,46,21.00
2014,08,27,09,47,21.00
2014,08,27,09,48,21.00
2014,08,27,09,49,20.90
2014,08,27,09,50,21.00
2014,08,27,09,51,21.00
2014,08,27,09,52,20.90
2014,08,27,09,53,20.90
2014,08,27,09,54,20.90
2014,08,27,09,55,20.90
2014,08,27,09,56,20.90
2014,08,27,09,57,20.90
2014,08,27,09,58,20.90
2014,08,27,09,59,20.90
2014,08,27,10,00,20.90
2014,08,27,10,01,21.00
2014,08,27,10,02,21.00
2014,08,27,10,03,21.00
2014,08,27,10,04,21.00
2014,08,27,10,05,21.00
2014,08,27,10,06,21.00
2014,08,27,10,07,21.00
2014,08,27,10,08,21.00
2014,08,27,10,09,21.10
2014,08,27,10,10,21.10
2014,08,27,10,11,21.20
2014,08,27,10,12,21.20
2014,08,27,10,13,21.30
2014,08,27,10,14,21.30
2014,08,27,10,15,21.30
2014,08,27,10,16,21.30
2014,08,27,10,17,21.40
2014,08,27,10,18,21.40
2014,08,27,10,19,21.40
2014,08,27,10,20,21.40
2014,08,27,10,21,21.50
2014,08,27,10,22,21.60
2014,08,27,10,23,21.60
2014,08,27,10,24,21.70
2014,08,27,10,25,21.70
2014,08,27,10,26,21.80
2014,08,27,10,27,21.80
2014,08,27,10,28,21.80
2014,08,27,10,29,21.90
2014,08,27,10,30,21.90
2014,08,27,10,31,22.00
2014,08,27,10,32,22.10
2014,08,27,10,33,22.10
2014,08,27,10,34,22.10
2014,08,27,10,35,22.10
2014,08,27,10,36,22.10
2014,08,27,10,37,22.10
2014,08,27,10,38,22.10
2014,08,27,10,39,22.00
2014,08,27,10,40,22.00
2014,08,27,10,41,22.00
2014,08,27,10,42,22.00
2014,08,27,10,43,22.00
2014,08,27,10,44,22.00
2014,08,27,10,45,22.10
2014,08,27,10,46,22.10
2014,08,27,10,47,22.10
2014,08,27,10,48,22.10
2014,08,27,10,49,22.10
2014,08,27,10,50,22.10
2014,08,27,10,51,22.10
2014,08,27,10,52,22.20
2014,08,27,10,53,22.20
2014,08,27,10,54,22.30
2014,08,27,10,55,22.30
2014,08,27,10,56,22.30
2014,08,27,10,57,22.30
2014,08,27,10,58,22.30
2014,08,27,10,59,22.30
2014,08,27,11,00,22.40
2014,08,27,11,01,22.50
2014,08,27,11,02,22.60
2014,08,27,11,03,22.60
2014,08,27,11,04,22.60
2014,08,27,11,05,22.70
2014,08,27,11,06,22.70
2014,08,27,11,07,22.70
2014,08,27,11,08,22.70
2014,08,27,11,09,22.70
2014,08,27,11,10,22.80
2014,08,27,11,11,22.80
2014,08,27,11,12,22.80
2014,08,27,11,13,22.80
2014,08,27,11,14,22.90
2014,08,27,11,15,22.90
2014,08,27,11,16,23.00
2014,08,27,11,17,23.10
2014,08,27,11,18,23.10
2014,08,27,11,19,23.10
2014,08,27,11,20,23.10
2014,08,27,11,21,23.10
2014,08,27,11,22,23.00
2014,08,27,11,23,23.00
2014,08,27,11,24,22.90
2014,08,27,11,25,22.90
2014,08,27,11,26,22.90
2014,08,27,11,27,22.80
2014,08,27,11,28,22.80
2014,08,27,11,29,22.80
2014,08,27,11,30,22.80
2014,08,27,11,31,22.80
2014,08,27,11,32,22.80
2014,08,27,11,33,22.90
2014,08,27,11,34,22.90
2014,08,27,11,35,22.80
2014,08,27,11,36,22.80
2014,08,27,11,37,22.80
2014,08,27,11,38,22.80
2014,08,27,11,39,22.80
2014,08,27,11,40,22.80
2014,08,27,11,41,22.80
2014,08,27,11,42,22.80
2014,08,27,11,43,22.90
2014,08,27,11,44,22.90
2014,08,27,11,45,22.90
2014,08,27,11,46,22.90
2014,08,27,11,47,22.90
2014,08,27,11,48,23.00
2014,08,27,11,49,23.00
2014,08,27,11,50,23.00
2014,08,27,11,51,23.10
2014,08,27,11,52,23.10
2014,08,27,11,53,23.10
2014,08,27,11,54,23.00
2014,08,27,11,55,22.90
2014,08,27,11,56,22.90
2014,08,27,11,57,23.00
2014,08,27,11,58,23.00
2014,08,27,11,59,23.10
2014,08,27,12,00,23.10
2014,08,27,12,01,23.10
2014,08,27,12,02,23.10
2014,08,27,12,03,23.10
2014,08,27,12,04,23.10
2014,08,27,12,05,23.10
2014,08,27,12,06,23.00
2014,08,27,12,07,23.00
2014,08,27,12,08,22.90
2014,08,27,12,09,22.90
2014,08,27,12,10,23.00
2014,08,27,12,11,23.00
2014,08,27,12,12,23.10
2014,08,27,12,13,23.20
2014,08,27,12,14,23.20
2014,08,27,12,15,23.20
2014,08,27,12,16,23.30
2014,08,27,12,17,23.30
2014,08,27,12,18,23.30
2014,08,27,12,19,23.30
2014,08,27,12,20,23.30
2014,08,27,12,21,23.30
2014,08,27,12,22,23.40
2014,08,27,12,23,23.50
2014,08,27,12,24,23.60
2014,08,27,12,25,23.60
2014,08,27,12,26,23.70
2014,08,27,12,27,23.70
2014,08,27,12,28,23.80
2014,08,27,12,29,23.80
2014,08,27,12,30,23.80
2014,08,27,12,31,23.80
2014,08,27,12,32,23.80
2014,08,27,12,33,23.70
2014,08,27,12,34,23.70
2014,08,27,12,35,23.70
2014,08,27,12,36,23.80
2014,08,27,12,37,23.80
2014,08,27,12,38,23.70
2014,08,27,12,39,23.80
2014,08,27,12,40,23.80
2014,08,27,12,41,23.80
2014,08,27,12,42,23.80
2014,08,27,12,43,23.80
2014,08,27,12,44,23.80
2014,08,27,12,45,23.90
2014,08,27,12,46,24.00
2014,08,27,12,47,24.00
2014,08,27,12,48,24.00
2014,08,27,12,49,24.00
2014,08,27,12,50,24.10
2014,08,27,12,51,24.10
2014,08,27,12,52,24.10
2014,08,27,12,53,24.10
2014,08,27,12,54,24.10
2014,08,27,12,55,24.20
2014,08,27,12,56,24.20
2014,08,27,12,57,24.20
2014,08,27,12,58,24.30
2014,08,27,12,59,24.30
2014,08,27,13,00,24.30
2014,08,27,13,01,24.30
2014,08,27,13,02,24.30
2014,08,27,13,03,24.30
2014,08,27,13,04,24.40
2014,08,27,13,05,24.40
2014,08,27,13,06,24.30
2014,08,27,13,07,24.30
2014,08,27,13,08,24.30
2014,08,27,13,09,24.20
2014,08,27,13,10,24.20
2014,08,27,13,11,24.20
2014,08,27,13,12,24.20
2014,08,27,13,13,24.20
2014,08,27,13,14,24.20
2014,08,27,13,15,24.10
2014,08,27,13,16,24.10
2014,08,27,13,17,24.10
2014,08,27,13,18,24.10
2014,08,27,13,19,24.10
2014,08,27,13,20,24.10
2014,08,27,13,21,24.10
2014,08,27,13,22,24.20
2014,08,27,13,23,24.20
2014,08,27,13,24,24.20
2014,08,27,13,25,24.10
2014,08,27,13,26,24.10
2014,08,27,13,27,24.00
2014,08,27,13,28,23.90
2014,08,27,13,29,23.90
2014,08,27,13,30,24.00
2014,08,27,13,31,24.10
2014,08,27,13,32,24.10
2014,08,27,13,33,24.10
2014,08,27,13,34,24.20
2014,08,27,13,35,24.20
2014,08,27,13,36,24.20
2014,08,27,13,37,24.20
2014,08,27,13,38,24.30
2014,08,27,13,39,24.40
2014,08,27,13,40,24.40
2014,08,27,13,41,24.50
2014,08,27,13,42,24.50
2014,08,27,13,43,24.50
2014,08,27,13,44,24.50
2014,08,27,13,45,24.40
2014,08,27,13,46,24.30
2014,08,27,13,47,24.20
2014,08,27,13,48,24.10
2014,08,27,13,49,24.10
2014,08,27,13,50,24.00
2014,08,27,13,51,24.10
2014,08,27,13,52,24.10
2014,08,27,13,53,24.20
2014,08,27,13,54,24.30
2014,08,27,13,55,24.30
2014,08,27,13,56,24.30
2014,08,27,13,57,24.40
2014,08,27,13,58,24.40
2014,08,27,13,59,24.40
2014,08,27,14,00,24.50
2014,08,27,14,01,24.60
2014,08,27,14,02,24.60
2014,08,27,14,03,24.50
2014,08,27,14,04,24.30
2014,08,27,14,05,24.30
2014,08,27,14,06,24.20
2014,08,27,14,07,24.20
2014,08,27,14,08,24.10
2014,08,27,14,09,24.00
2014,08,27,14,10,24.00
2014,08,27,14,11,24.10
2014,08,27,14,12,24.20
2014,08,27,14,13,24.20
2014,08,27,14,14,24.20
2014,08,27,14,15,24.30
2014,08,27,14,16,24.30
2014,08,27,14,17,24.40
2014,08,27,14,18,24.50
2014,08,27,14,19,24.50
2014,08,27,14,20,24.40
2014,08,27,14,21,24.40
2014,08,27,14,22,24.30
2014,08,27,14,23,24.30
2014,08,27,14,24,24.20
2014,08,27,14,25,24.20
2014,08,27,14,26,24.20
2014,08,27,14,27,24.20
2014,08,27,14,28,24.30
2014,08,27,14,29,24.30
2014,08,27,14,30,24.30
2014,08,27,14,31,24.30
2014,08,27,14,32,24.30
2014,08,27,14,33,24.30
2014,08,27,14,34,24.40
2014,08,27,14,35,24.50
2014,08,27,14,36,24.60
2014,08,27,14,37,24.60
2014,08,27,14,38,24.70
2014,08,27,14,39,24.80
2014,08,27,14,40,24.80
2014,08,27,14,41,24.80
2014,08,27,14,42,24.80
2014,08,27,14,43,24.80
2014,08,27,14,44,24.80
2014,08,27,14,45,24.80
2014,08,27,14,46,24.80
2014,08,27,14,47,24.80
2014,08,27,14,48,24.80
2014,08,27,14,49,24.90
2014,08,27,14,50,25.00
2014,08,27,14,51,25.20
2014,08,27,14,52,25.40
2014,08,27,14,53,25.70
2014,08,27,14,54,25.90
2014,08,27,14,55,26.00
2014,08,27,14,56,26.20
2014,08,27,14,57,26.30
2014,08,27,14,58,26.40
2014,08,27,14,59,26.50
2014,08,27,15,00,26.60
2014,08,27,15,01,26.70
2014,08,27,15,02,26.80
2014,08,27,15,03,26.90
2014,08,27,15,04,27.00
2014,08,27,15,05,27.00
2014,08,27,15,06,26.90
2014,08,27,15,07,26.90
2014,08,27,15,08,26.80
2014,08,27,15,09,26.60
2014,08,27,15,10,26.50
2014,08,27,15,11,26.40
2014,08,27,15,12,26.40
2014,08,27,15,13,26.30
2014,08,27,15,14,26.30
2014,08,27,15,15,26.30
2014,08,27,15,16,26.30
2014,08,27,15,17,26.30
2014,08,27,15,18,26.40
2014,08,27,15,19,26.40
2014,08,27,15,20,26.40
2014,08,27,15,21,26.40
2014,08,27,15,22,26.30
2014,08,27,15,23,26.30
2014,08,27,15,24,26.30
2014,08,27,15,25,26.30
2014,08,27,15,26,26.20
2014,08,27,15,27,26.00
2014,08,27,15,28,25.90
2014,08,27,15,29,25.90
2014,08,27,15,30,25.70
2014,08,27,15,31,25.60
2014,08,27,15,32,25.50
2014,08,27,15,33,25.50
2014,08,27,15,34,25.30
2014,08,27,15,35,25.30
2014,08,27,15,36,25.20
2014,08,27,15,37,25.10
2014,08,27,15,38,25.00
2014,08,27,15,39,24.90
2014,08,27,15,40,24.90
2014,08,27,15,41,24.80
2014,08,27,15,42,24.70
2014,08,27,15,43,24.60
2014,08,27,15,44,24.20
2014,08,27,15,45,23.80
2014,08,27,15,46,23.50
2014,08,27,15,47,23.20
2014,08,27,15,48,22.80
2014,08,27,15,49,22.60
2014,08,27,15,50,22.40
2014,08,27,15,51,22.20
2014,08,27,15,52,21.90
2014,08,27,15,53,21.60
2014,08,27,15,54,21.30
2014,08,27,15,55,21.20
2014,08,27,15,56,21.10
2014,08,27,15,57,21.00
2014,08,27,15,58,20.80
2014,08,27,15,59,20.60
2014,08,27,16,00,20.40
2014,08,27,16,01,20.30
2014,08,27,16,02,20.20
2014,08,27,16,03,20.10
2014,08,27,16,04,20.00
2014,08,27,16,05,19.90
2014,08,27,16,06,19.80
2014,08,27,16,07,19.70
2014,08,27,16,08,19.60
2014,08,27,16,09,19.50
2014,08,27,16,10,19.50
2014,08,27,16,11,19.40
2014,08,27,16,12,19.30
2014,08,27,16,13,19.30
2014,08,27,16,14,19.30
2014,08,27,16,15,19.30
2014,08,27,16,16,19.40
2014,08,27,16,17,19.40
2014,08,27,16,18,19.40
2014,08,27,16,19,19.40
2014,08,27,16,20,19.40
2014,08,27,16,21,19.40
2014,08,27,16,22,19.40
2014,08,27,16,23,19.50
2014,08,27,16,24,19.50
2014,08,27,16,25,19.50
2014,08,27,16,26,19.60
2014,08,27,16,27,19.60
2014,08,27,16,28,19.60
2014,08,27,16,29,19.60
2014,08,27,16,30,19.60
2014,08,27,16,31,19.70
2014,08,27,16,32,19.70
2014,08,27,16,33,19.80
2014,08,27,16,34,19.90
2014,08,27,16,35,20.10
2014,08,27,16,36,20.20
2014,08,27,16,37,20.30
2014,08,27,16,38,20.40
2014,08,27,16,39,20.40
2014,08,27,16,40,20.50
2014,08,27,16,41,20.70
2014,08,27,16,42,20.80
2014,08,27,16,43,20.80
2014,08,27,16,44,21.00
2014,08,27,16,45,21.00
2014,08,27,16,46,21.10
2014,08,27,16,47,21.10
2014,08,27,16,48,21.10
2014,08,27,16,49,21.20
2014,08,27,16,50,21.20
2014,08,27,16,51,21.30
2014,08,27,16,52,21.30
2014,08,27,16,53,21.40
2014,08,27,16,54,21.50
2014,08,27,16,55,21.60
2014,08,27,16,56,21.70
2014,08,27,16,57,21.80
2014,08,27,16,58,22.00
2014,08,27,16,59,22.30
2014,08,27,17,00,22.60
2014,08,27,17,01,22.80
2014,08,27,17,02,23.10
2014,08,27,17,03,23.30
2014,08,27,17,04,23.50
2014,08,27,17,05,23.70
2014,08,27,17,06,23.80
2014,08,27,17,07,24.00
2014,08,27,17,08,24.10
2014,08,27,17,09,24.20
2014,08,27,17,10,24.30
2014,08,27,17,11,24.40
2014,08,27,17,12,24.60
2014,08,27,17,13,24.70
2014,08,27,17,14,24.80
2014,08,27,17,15,24.90
2014,08,27,17,16,25.00
2014,08,27,17,17,25.10
2014,08,27,17,18,25.30
2014,08,27,17,19,25.40